Weather in Dauriya

Russia / Zabaykalsky Krai     49°55′26″N   116°50′57″E
temp.,
°C
wind,
m/s
gust,
m/s
humid.,
%
clouds,
%
prec.,
mm/h
press.,
hPa
HPBL,
m
13 april, tue
tue1300:00−6ese11252 0.0 102310
03:00−7sse11280 0.0 102210
06:00−9s11340 0.0 102110
09:00−4wnw01260 0.0 1019309
12:00+1nw67151 0.0 10162449
15:00+2nw89120 0.0 10142546
18:00+2nnw811120 0.0 10132315
21:00−2e22170 0.0 101310
14 april, wed
wed1400:00−3ssw332029 0.0 101226
03:00−4ssw22275 0.0 101123
06:00−3wsw2336100 0.0 100853
09:00+3wnw8115598 0.0 10071082
12:00+6wnw11133426 0.0 10051889
15:00+8nw81130100 0.0 10052720
18:00+8nnw7923100 0.0 10042610
21:00+4n4840100 0.0 1007229
15 april, thu
thu1500:00+2n2251100 0.0 100830
03:00+1ne2250100 0.0 100626
06:00+1nne2250100 0.0 100622
09:00+2n3341100 0.0 1005453
12:00+1nnw6666100 0.1 1007796
15:00+5nne4636100 0.2 10051893
18:00+5nne6729100 0.1 10052358
21:00+2nne2234100 0.1 100843
16 april, fri
fri1600:000n22528 0.0 100810
03:00
06:00−3nw33373 0.0 101134
09:00+2nnw472769 0.0 1011458
12:00+6nnw67175 0.0 10112826
15:00+7nnw7813100 0.0 10113773
18:00+7nnw881277 0.0 10123323
21:00+3nw452160 0.0 101571
17 april, sat
sat1700:00+1wnw34240 0.0 101545
03:00−1wnw33280 0.0 101724
06:00−1wsw33395 0.0 101533
09:00+4w57425 0.0 1014431
12:00+10w78351 0.0 10121090
15:00+14w78265 0.0 10091678
18:00+14w682312 0.0 10081722
21:00+10sw33316 0.0 100917